{"data":{"norad_id":56517,"epoch":"2026-09-20T04:22:16.407840Z","epoch_age_seconds":142264,"freshness":"FRESH","line1":"1 56517U 23065Q   26263.18213435 -.00000821  00000+0 -20343-4 0  9994","line2":"2 56517  43.0019 194.1865 0000498 232.2119 127.8688 15.27577916186340","mean_motion":15.27577916,"eccentricity":4.98e-5,"inclination_deg":43.0019,"raan_deg":194.1865,"arg_perigee_deg":232.2119,"mean_anomaly_deg":127.8688,"bstar":-2.0343e-5,"rev_number":18634,"period_min":94.266877317176,"perigee_km":482.71364891412,"apogee_km":483.39702367081,"semimajor_km":6861.1923362925,"source":"CELESTRAK","updated_at":"2026-09-21T09:00:33.471706Z"}}